Theta_e
312 308 308 308 308 307 307 308 308 309 309 311 313 315 317 319 319 319 321 320 322 323 324 325 325 325 323 322 319 325 326 325 324 321 314 310 311 311 313 319 319 319 318
312 310 312 308 307 307 306 305 305 306 307 308 310 315 317 317 316 318 318 319 320 318 319 322 322 322 324 323 320 321 325 326 323 321 321 312 308 308 309 314 318 319 318
308 308 309 307 306 307 303 304 302 301 302 306 310 311 311 315 317 318 319 321 319 320 321 320 320 320 320 324 326 320 322 324 322 321 322 318 308 306 306 307 312 315 315
305 305 306 306 305 303 303 303 302 302 301 301 301 306 311 313 315 317 318 319 321 321 320 320 319 319 319 322 321 325 327 323 322 323 324 322 311 305 304 304 305 312 312
304 304 307 305 305 304 304 304 304 303 303 302 302 302 302 302 302 303 308 314 317 318 320 320 320 321 320 320 321 320 321 326 324 324 323 323 318 306 304 303 304 304 306
306 304 305 306 305 305 304 304 304 303 303 303 302 303 303 303 302 303 303 303 303 307 316 318 318 320 320 320 320 320 321 322 325 326 324 324 323 319 315 305 303 304 305
307 306 305 305 305 304 304 304 303 304 303 303 303 302 302 302 303 302 306 305 305 312 316 317 318 319 321 320 319 319 319 319 320 320 327 323 324 322 319 309 304 303 304
307 306 305 305 305 304 304 304 303 303 303 303 302 303 302 301 301 303 303 303 304 303 304 310 315 319 319 319 319 318 319 317 316 318 320 326 324 323 322 319 310 304 305
307 306 306 305 305 305 304 304 304 303 302 303 303 302 302 302 302 302 302 302 302 302 302 302 304 306 307 318 318 318 319 319 314 309 311 315 318 324 323 321 315 307 304
305 305 306 306 305 305 303 303 303 302 303 302 300 298 299 301 303 302 301 302 302 302 301 302 303 302 303 304 309 317 317 317 318 319 313 312 316 318 318 322 317 311 306
305 306 306 306 305 304 304 303 303 302 301 299 297 299 300 300 300 300 300 299 300 299 300 301 301 301 301 301 302 303 311 318 316 317 317 317 314 316 322 320 321 316 309
304 305 305 304 303 303 302 301 300 300 296 294 294 293 294 294 295 296 297 298 298 298 298 297 299 300 300 300 300 301 302 304 315 316 317 318 317 318 318 316 318 318 314
304 303 302 301 300 300 300 299 298 296 296 293 291 291 291 291 292 293 294 295 295 295 296 297 298 297 298 300 299 299 299 299 300 308 313 315 317 318 320 319 317 318 318
303 301 301 300 298 297 299 299 296 293 291 291 292 291 292 291 292 293 294 295 296 295 295 296 296 299 300 299 300 301 302 302 301 300 304 311 315 316 317 320 318 316 316
300 299 299 296 296 298 297 293 293 291 291 291 291 291 292 292 292 292 292 293 294 295 296 296 296 296 295 297 299 299 299 300 303 303 301 301 303 313 315 316 318 318 316
299 298 297 298 297 293 293 292 290 291 291 291 291 291 292 291 292 293 293 294 295 295 295 295 295 297 298 298 298 299 298 298 298 299 300 301 300 302 309 314 316 316 319
300 298 298 294 293 292 292 291 292 291 291 291 291 291 291 291 291 291 292 292 293 293 293 293 294 294 294 295 295 296 298 298 297 297 298 299 300 300 303 307 310 313 316
296 296 294 293 292 292 292 292 291 291 290 290 290 290 290 290 290 290 290 291 291 291 292 292 292 293 294 295 295 295 296 297 297 295 296 298 299 299 299 299 303 310 313
296 293 292 292 292 292 291 290 289 288 289 289 289 289 289 289 289 289 289 290 290 290 291 291 292 293 293 294 295 295 295 296 297 296 295 296 296 297 298 298 297 302 307
293 293 292 292 291 290 289 289 288 288 288 288 289 289 289 289 289 289 289 289 289 290 290 290 290 290 291 291 293 294 295 296 296 296 295 294 293 294 295 296 296 296 299
293 292 292 291 290 288 288 288 288 288 288 287 287 287 287 287 287 287 287 286 286 286 287 287 288 288 289 290 291 293 295 295 295 295 295 295 294 294 296 294 295 296 294
292 291 291 289 288 288 287 287 287 287 286 286 286 286 286 285 285 286 285 285 285 284 285 285 286 286 287 288 289 292 294 295 295 295 295 294 294 295 295 296 296 296 294
291 289 288 288 287 287 287 286 285 285 284 284 284 285 285 286 286 286 285 285 285 285 285 285 285 285 286 286 287 288 290 292 294 295 295 295 294 295 295 296 296 295 295
289 288 287 286 286 286 285 284 284 284 284 284 285 285 285 285 285 286 286 286 286 286 285 285 285 286 286 286 286 286 287 289 292 293 294 295 295 295 296 296 296 294 297
288 286 286 285 285 285 284 283 283 284 284 284 284 284 284 286 285 285 285 285 285 285 286 286 285 286 286 287 287 287 287 287 288 289 292 294 295 295 296 296 295 296 299
286 285 285 285 285 284 283 282 283 284 283 284 283 284 284 284 284 284 285 285 285 285 286 286 286 286 286 286 287 288 288 288 287 289 290 291 293 295 296 296 294 296 298
Wind_Speed
8 9 9 9 9 10 11 11 12 13 13 13 12 13 14 20 26 23 27 24 28 31 33 31 31 30 27 28 32 32 31 29 27 27 29 28 28 27 27 27 27 25 24
11 10 11 11 12 9 10 11 12 12 13 14 14 16 16 17 20 19 20 27 35 29 32 33 31 30 30 30 33 34 34 33 30 30 31 31 31 30 28 29 28 27 25
12 14 13 13 13 12 11 9 10 11 12 13 14 17 20 22 23 23 23 23 26 30 28 27 27 29 34 33 32 34 36 37 35 33 33 31 32 32 32 30 30 27 25
13 13 13 13 12 12 11 10 10 10 12 13 15 15 17 20 22 26 28 27 26 27 28 28 28 24 30 38 36 35 34 35 36 36 35 32 33 33 32 32 32 29 28
16 14 13 12 9 8 9 11 12 15 15 15 15 16 18 21 22 23 26 27 27 31 30 29 27 27 25 27 39 42 39 33 38 38 38 36 34 34 32 32 34 34 32
17 15 13 11 11 7 6 10 15 17 18 18 19 19 19 22 21 18 21 22 22 24 29 33 30 31 30 28 31 37 46 44 40 41 38 38 37 36 34 32 35 35 35
19 19 14 10 9 8 10 12 14 15 17 21 22 23 26 27 18 21 13 9 11 16 19 23 29 31 31 32 32 30 34 39 39 40 42 39 40 37 35 34 34 37 36
24 22 22 17 17 16 16 15 13 13 15 16 19 23 22 35 30 18 23 24 22 21 19 18 17 21 30 32 28 33 31 32 39 41 45 50 51 42 36 35 34 36 38
29 27 24 18 17 18 18 16 13 15 17 15 15 21 25 23 34 34 31 33 31 29 26 23 23 24 25 22 29 28 26 30 35 36 41 44 43 42 41 36 36 36 40
29 28 24 22 19 17 12 12 15 18 17 22 25 26 29 31 30 35 32 30 32 32 29 21 20 22 22 23 26 23 29 26 31 35 41 41 42 44 40 42 37 36 40
23 29 24 25 22 18 20 24 26 24 26 28 31 30 29 30 34 36 39 35 34 35 33 29 30 29 24 26 25 27 25 23 29 29 35 43 41 44 45 46 37 38 37
21 24 26 25 23 23 21 19 17 21 26 29 33 34 35 37 36 34 35 34 35 35 34 37 34 28 29 33 34 33 33 30 25 31 29 35 38 42 45 44 48 43 42
24 22 20 20 18 20 21 24 24 29 34 35 33 32 32 33 34 34 36 37 36 37 36 32 30 32 31 30 31 33 34 33 28 34 35 35 36 36 41 47 51 51 46
25 23 27 25 25 25 28 37 30 28 32 33 34 32 32 33 33 35 36 35 39 39 36 36 32 23 24 28 25 23 25 26 25 23 33 34 35 37 36 38 53 53 50
22 20 15 19 21 31 25 19 27 32 33 34 34 33 34 34 33 35 36 35 36 37 39 34 33 31 32 29 28 32 31 25 23 21 22 28 35 35 36 45 36 61 52
19 16 20 28 25 15 20 27 30 32 33 34 35 35 35 35 34 34 35 35 34 35 41 34 32 29 25 25 30 28 35 33 33 28 25 27 30 35 38 35 39 40 66
26 21 29 16 17 22 27 30 32 34 35 36 35 35 36 35 35 35 34 33 35 36 40 39 36 34 35 36 38 36 27 31 33 36 31 25 26 26 30 35 37 37 38
17 21 13 17 24 27 30 33 35 36 37 37 37 37 38 38 39 39 38 38 38 38 39 45 37 36 35 32 33 34 32 34 37 35 34 31 30 32 33 35 38 37 40
18 17 17 22 27 32 34 35 36 35 35 35 37 37 38 37 38 39 39 38 38 36 36 41 38 32 29 29 29 31 34 32 32 31 33 32 36 36 33 32 35 43 38
14 19 23 29 31 33 34 32 33 34 33 34 34 33 34 36 39 40 42 45 46 45 43 45 49 42 36 32 29 31 34 33 38 36 36 38 39 40 39 41 40 37 42
21 26 28 29 33 32 33 32 29 32 37 41 44 45 46 47 48 49 51 54 48 45 42 43 47 42 40 33 27 27 29 33 33 33 34 34 37 38 36 39 40 39 38
25 25 30 30 31 34 31 31 34 37 40 42 46 48 48 45 41 40 40 40 40 40 40 39 43 42 39 35 30 28 22 22 29 30 32 34 36 38 38 35 35 39 39
27 30 32 34 32 30 32 35 39 41 38 35 32 33 34 34 34 35 34 34 35 36 37 39 44 41 36 35 34 39 35 29 18 25 26 32 35 36 37 37 39 38 36
28 32 31 28 30 33 36 35 30 27 29 30 31 33 36 36 35 34 34 35 34 34 35 38 41 42 40 36 36 35 37 44 34 22 23 29 33 36 37 37 37 33 31
31 28 28 32 35 31 36 31 27 27 31 34 35 37 37 33 41 35 34 39 41 42 36 34 36 36 37 36 32 31 32 32 38 40 22 20 25 31 32 35 33 30 31
26 30 30 26 28 36 33 27 25 29 33 34 34 34 35 35 34 33 32 34 36 36 36 35 35 35 35 35 35 35 33 34 31 29 36 26 24 27 30 31 32 28 31
Wind_Direction
247 244 242 248 253 260 253 248 260 269 276 280 289 292 281 254 262 264 249 246 250 250 252 254 254 252 252 249 242 240 237 234 239 239 240 238 233 230 223 220 226 232 232
253 256 263 263 262 263 279 280 282 278 281 281 278 282 278 280 276 274 269 259 248 254 256 257 255 251 246 248 243 240 240 239 241 243 243 243 239 233 230 222 220 225 228
246 248 251 255 262 276 275 284 287 286 288 287 286 276 278 281 279 277 278 273 266 258 257 262 266 264 251 237 243 243 242 244 244 243 241 242 240 237 231 228 223 222 222
254 241 246 253 259 263 273 291 300 305 304 301 294 289 281 278 276 275 275 275 273 269 267 271 271 271 254 241 234 238 249 249 248 243 244 244 239 237 234 229 226 222 222
251 247 252 264 277 279 290 300 313 318 316 314 312 304 298 298 296 288 278 272 274 274 273 270 270 271 266 254 243 241 242 247 256 246 245 248 243 237 236 232 226 226 224
256 251 244 264 280 287 285 301 312 321 322 324 314 309 313 307 307 313 300 284 286 279 273 272 275 272 266 269 254 245 248 248 243 251 243 245 244 242 239 233 227 223 223
258 256 246 236 252 258 256 280 301 305 311 318 320 314 308 310 299 305 302 307 304 291 283 276 274 272 265 271 263 254 253 244 236 234 245 247 243 242 241 236 229 224 223
258 252 254 247 245 247 254 267 277 284 295 305 307 308 319 309 314 301 287 293 292 295 296 280 283 273 263 268 269 262 256 246 244 243 239 240 241 236 237 238 234 227 222
258 257 249 242 243 255 261 271 275 285 292 285 285 299 308 301 306 305 302 298 294 292 293 294 286 287 292 272 261 263 266 261 247 246 246 250 251 227 237 236 236 232 226
266 260 253 243 247 249 242 255 265 274 270 282 293 290 287 289 297 304 299 299 299 295 295 295 304 303 294 292 285 265 258 262 263 258 244 246 250 249 255 243 234 234 229
266 247 241 240 237 235 253 271 254 263 275 292 291 289 286 284 283 287 295 295 293 294 296 294 283 283 287 294 291 290 275 261 261 259 256 245 245 246 240 238 231 235 234
247 227 227 232 243 260 250 246 271 282 288 292 286 284 284 287 287 288 288 289 290 290 288 283 280 280 282 283 286 288 287 286 270 262 262 254 243 243 244 244 239 242 234
241 230 229 235 250 256 251 270 275 280 294 292 289 288 284 282 284 286 288 288 287 290 291 292 287 285 284 289 290 284 284 283 282 270 272 262 255 252 247 237 237 236 229
233 223 231 251 260 260 267 279 283 292 288 289 286 286 284 281 281 281 282 287 290 287 284 282 280 283 286 281 281 282 279 279 278 274 263 265 262 256 253 248 237 238 239
218 230 247 249 263 282 297 302 287 289 285 283 284 284 282 283 281 281 282 280 281 288 286 286 286 286 277 272 280 268 274 277 277 274 274 269 267 263 258 254 256 230 230
230 246 254 273 295 310 298 290 291 291 287 287 288 286 284 284 284 280 278 277 277 282 286 283 282 283 281 269 263 272 268 271 278 282 280 279 275 269 267 265 260 256 235
285 285 296 309 306 292 291 292 289 289 287 287 286 285 285 285 283 282 282 283 282 281 277 282 283 282 278 275 272 268 273 267 272 275 276 284 286 281 279 272 271 263 246
291 305 304 290 289 291 288 288 288 287 287 286 285 284 282 281 280 280 280 278 278 277 278 282 283 283 281 279 275 273 267 267 268 272 274 273 272 278 288 281 271 264 251
293 316 293 286 292 289 291 292 291 291 289 287 285 284 284 283 281 281 280 279 277 276 274 275 280 280 276 275 275 270 266 267 268 266 268 271 275 278 282 289 287 267 260
299 288 291 293 295 295 297 295 294 293 288 284 281 279 276 275 275 274 274 273 273 273 274 274 276 278 278 276 275 274 268 261 258 264 269 274 276 278 278 279 286 277 268
296 297 294 294 296 296 294 298 292 284 283 283 282 282 280 279 279 279 278 276 274 271 270 271 271 272 270 273 272 273 267 266 262 264 268 271 275 275 278 280 275 279 268
296 293 296 298 295 297 297 290 289 289 288 287 286 286 286 286 285 284 281 276 271 270 267 264 265 264 266 264 261 263 273 266 261 260 265 266 270 274 278 275 279 275 267
295 298 298 301 302 297 294 297 298 297 294 294 293 292 292 292 293 291 290 287 282 272 263 265 267 264 264 263 263 258 256 271 264 260 263 266 269 272 273 274 277 276 262
298 302 305 304 300 298 303 308 310 305 301 299 298 299 298 292 293 290 287 285 282 280 272 263 262 266 268 270 269 264 264 255 263 269 265 266 266 268 274 276 278 271 257
303 309 305 305 305 310 315 316 312 311 310 308 305 302 300 291 295 290 285 280 282 281 280 270 265 266 268 268 268 268 260 252 257 258 273 275 267 269 269 275 279 269 261
305 307 311 309 311 313 318 319 316 310 308 306 305 306 303 295 291 287 283 280 277 277 275 274 272 269 263 261 257 257 259 253 248 247 253 268 261 264 264 269 281 267 268